Regional Weather Roundup
Issued by NWS

Home | Current Version | Previous Version | Graphics & Text | Print | Product List | Glossary On
Versions: 1 2 3 4 5 6 7 8 9 10 11 12 13 14 15 16 17 18 19 20 21 22 23 24 25 26 27 28 29 30 31 32 33 34 35 36 37 38 39 40 41 42 43 44 45 46 47 48 49 50
000
ASUS43 KLOT 281202
RWRIL

ILLINOIS REGIONAL WEATHER ROUNDUP
NATIONAL WEATHER SERVICE CHICAGO/ROMEOVILLE IL
700 AM CDT SAT MAR 28 2015

NOTE: "FAIR" INDICATES FEW OR NO CLOUDS BELOW 12,000 FEET WITH NO
SIGNIFICANT WEATHER AND/OR OBSTRUCTIONS TO VISIBILITY.

* THESE STATIONS ARE NOT UNDER NWS QUALITY CONTROL. THEY ALSO MAY NOT
  REPORT WEATHER SUCH AS PRECIPITATION OR FOG.

ILZ001-002-007-009-015-016-024-281300-
NORTHWEST ILLINOIS

CITY           SKY/WX    TMP DP  RH WIND       PRES   REMARKS
MOLINE         CLEAR     18  13  80 E6        30.28R WCI  10
6HR MIN TEMP:  16; 6HR MAX TEMP:  24;

STERLING*      CLEAR     18  14  86 CALM      30.28R
SAVANNA*       CLEAR     18  15  86 E3        30.29R
$$

ILZ003-004-008-010-011-017-018-281300-
NORTH CENTRAL ILLINOIS

CITY           SKY/WX    TMP DP  RH WIND       PRES   REMARKS
ROCKFORD       PTCLDY    16  11  80 CALM      30.30R
6HR MIN TEMP:  16; 6HR MAX TEMP:  22;

ROCHELLE*      CLEAR     18  15  89 CALM      30.29R
DE KALB*       CLEAR     15  11  85 CALM      30.27S
$$

ILZ005-006-012>014-019>023-281300-
NORTHEAST ILLINOIS

CITY           SKY/WX    TMP DP  RH WIND       PRES   REMARKS
CHICAGO-OHARE  PTCLDY    20  13  74 N5        30.27R WCI  13
6HR MIN TEMP:  20; 6HR MAX TEMP:  22;

CHICAGO-MIDWAY PTCLDY    25  11  55 NE6       30.28R WCI  18
6HR MIN TEMP:  21; 6HR MAX TEMP:  27;

AURORA         CLEAR     16   9  74 N3        30.28R
6HR MIN TEMP:  14; 6HR MAX TEMP:  20;

LANSING*       CLEAR     22   9  57 E3        30.28R
WAUKEGAN       CLEAR     15  12  88 NW5       30.28R WCI   8
6HR MIN TEMP:  13; 6HR MAX TEMP:  19;

DUPAGE AIRPORT CLEAR     16  11  80 N3        30.27R
6HR MIN TEMP:  12; 6HR MAX TEMP:  20;

KANKAKEE*      CLEAR     21  17  84 CALM      30.29R
WHEELING       CLEAR     19  13  77 CALM      30.29R
6HR MIN TEMP:  17; 6HR MAX TEMP:  22;

MORRIS*        CLEAR     18  13  81 N3        30.28R
ROMEOVILLE*    CLEAR     17  12  82 NW5       30.28R WCI  10
NORTHERLY ISL    N/A     25  12  58 N12         N/A  WCI  14
$$

LMZ740>746-281300-
SOUTHERN LAKE MICHIGAN

STATION/POSITION SKY/WX   TEMP    WIND        PRES    VSBY  WAVE
                          AIR SEA DIR/SP/G                  HT/PER
                          (F)     (DEG/KT/KT) (MB)    (MI)  (FT/S)
HARRISON CRIB              25      30/ 11/ 14   N/A
BURNHAM HARBOR             25      40/  7/ 12   N/A
CALUMET HARBOR             25      20/ 11/ 16 1023.4R
BURNS HARBOR               20     110/  4/  7 1025.1R
MICHIGAN CITY              18      70/  7/  8   N/A
$$

ILZ025>027-034>036-040-047-049-050-058-095>099-281300-
WEST-CENTRAL ILLINOIS

CITY           SKY/WX    TMP DP  RH WIND       PRES   REMARKS
QUINCY         MOCLDY    26  16  65 E6        30.25R WCI  19
MACOMB*        PTCLDY    22  19  87 E3        30.29R
$$

ILZ028>032-037-038-041>044-048-051>054-059>061-281300-
CENTRAL ILLINOIS

CITY           SKY/WX    TMP DP  RH WIND       PRES   REMARKS
DECATUR        PTCLDY    20  16  84 CALM      30.27R
PEORIA         PTCLDY    23  13  65 E5        30.29R WCI  17
6HR MIN TEMP:  22; 6HR MAX TEMP:  26;

SPRINGFIELD    PTCLDY    23  16  74 SE5       30.28R WCI  17
6HR MIN TEMP:  23; 6HR MAX TEMP:  26;

TAYLORVILLE    NOT AVBL
$$

ILZ033-039-045-046-055>057-062-063-281300-
EAST-CENTRAL ILLINOIS

CITY           SKY/WX    TMP DP  RH WIND       PRES   REMARKS
CHAMPAIGN      CLEAR     16  12  84 N5        30.26R WCI   9
DANVILLE*      CLEAR     17  14  89 N3        30.24R
RANTOUL*       CLEAR     20  16  86 N3        30.27R
MATTOON        CLEAR     20  14  77 N5        30.26R WCI  13
$$

ILZ079-100>102-281300-
SOUTHWEST ILLINOIS

CITY           SKY/WX    TMP DP  RH WIND       PRES   REMARKS
BELLEVILLE     MOCLDY    26  21  82 NE6       30.26R WCI  19
CAHOKIA*       PTCLDY    28  22  78 CALM      30.27R
SPARTA*        PTCLDY    26  20  77 CALM      30.27R
$$

ILZ064>066-069>071-074>076-080>082-084>086-088>090-092>094-281300-
SOUTH-CENTRAL ILLINOIS

CITY           SKY/WX    TMP DP  RH WIND       PRES   REMARKS
CARBONDALE     PTCLDY    25  21  85 CALM      30.26R
6HR MIN TEMP:  24; 6HR MAX TEMP:  29;

CAIRO*         PTCLDY    28  24  86 N3        30.25R
EFFINGHAM*     CLEAR     24  13  63 CALM      30.29R
MARION         PTCLDY    23  21  93 N6        30.27R WCI  16
MT. VERNON     PTCLDY    21  16  79 N3        30.27R
$$

ILZ067-068-072-073-078-083-087-091-281300-
SOUTHEAST ILLINOIS

CITY           SKY/WX    TMP DP  RH WIND       PRES   REMARKS
LAWRENCEVILLE  CLEAR     22  16  78 NE9       30.27R WCI  12
FLORA*         CLEAR     24  19  80 N5        30.28R WCI  18
HARRISBURG*    PTCLDY    26  22  84 NE6       30.27R WCI  19
CARMI*         CLEAR     25  17  73 N5        30.27R WCI  19
$$

ABBREVIATIONS USED IN REMARKS
   TC - TEMPERATURE IN CELSIUS
  WCI - WIND CHILL INDEX
   HX - HEAT INDEX
  VSB - VISIBILITY
$$




USA.gov is the U.S. government's official web portal to all federal, state and local government web resources and services.